Regional Weather Roundup
Issued by NWS

Home | Current Version | Previous Version | Graphics & Text | Print | Product List | Glossary On
Versions: 1 2 3 4 5 6 7 8 9 10 11 12 13 14 15 16 17 18 19 20 21 22 23 24 25 26 27 28 29 30 31 32 33 34 35 36 37 38 39 40 41 42 43 44 45 46 47 48 49 50
029
ASUS43 KLMK 280910
RWRKY
KENTUCKY REGIONAL WEATHER ROUNDUP
NATIONAL WEATHER SERVICE LOUISVILLE KY
400 AM EST TUE FEB 28 2017

NOTE "FAIR" INDICATES FEW OR NO CLOUDS BELOW 12,000 FEET
WITH NO SIGNIFICANT WEATHER AND/OR OBSTRUCTIONS TO VISIBILITY.

KYZ001>023-026-027-061>063-070>075-281000-
WESTERN AND SOUTH CENTRAL KENTUCKY

CITY           SKY/WX    TMP DP  RH WIND       PRES   REMARKS
PADUCAH        MOCLDY    55  50  83 S7        30.00F
HENDERSON      CLOUDY    52  46  82 S12       30.02F
OWENSBORO      LGT RAIN  51  49  92 S8        30.08S
HOPKINSVILLE   PTCLDY    54  49  85 S7        30.05F
BOWLING GREEN  CLOUDY    53  48  83 S13       30.09F
GLASGOW        CLOUDY    51  46  80 S7        30.10S
$$

KYZ024-025-028>034-038-045-046-053-281000-
NORTH CENTRAL KENTUCKY

CITY           SKY/WX    TMP DP  RH WIND       PRES   REMARKS
LOUISVILLE/SDF LGT RAIN  52  44  74 S13       30.07F
LOUISVILLE/LOU CLOUDY    51  43  74 S8        30.06F
FORT KNOX        N/A    N/A N/A N/A MISG        N/A
$$

KYZ035>037-039>044-047>052-055>060-089>105-281000-
NORTHEAST KENTUCKY

CITY           SKY/WX    TMP DP  RH WIND       PRES   REMARKS
LEXINGTON      CLOUDY    47  41  80 SE9       30.11F
COVINGTON      CLOUDY    43  40  89 S8        30.09F
FRANKFORT      MOCLDY    47  40  76 S6        30.10F
$$

KYZ054-064>069-076>088-106>120-281000-
SOUTHEAST KENTUCKY

CITY           SKY/WX    TMP DP  RH WIND       PRES   REMARKS
JACKSON        CLEAR     47  35  63 S6        30.16F
LONDON         CLEAR     38  34  85 CALM      30.14F
SOMERSET       CLOUDY    45  41  87 S3        30.15S
MIDDLESBORO    PTCLDY    36  34  93 CALM      30.21F
MONTICELLO     SUNNY     52  46  80 E7        30.14F
$$





USA.gov is the U.S. government's official web portal to all federal, state and local government web resources and services.